Погода Облучье

Погода Облучье : погода сейчас, прогноз погоды и архив. Всё, что Вы хотите узнать о погоде Облучье!

Хотите узнать прогноз погоды Облучье? Тогда Вам сюда: Погода Облучье

Поиск расширенной информации на нашем сайте:

Другие новости

Новости СМИ2

Главная страница сайта

Новости сайта

02.10.2013

Напоминаем, что на нашем новом сайте вы можете получить высокодетализированные прогнозы погоды по пунктам России, СНГ и мира (включающие важные для авиации метеовеличины, такие как направление и скорость ветра, видимость, явления погоды, количество и форма облачности, нижняя и верхняя граница облачности), а также ознакомиться с разнообразными материалами по авиационной метеорологии и подборкой полезных ссылок на эту тему.

Сайт Метеоцентр.Азия посвящён разработке технологий оптимизации авиаметеорологического обслуживания, включая проектирование и перспективное создание нескольких автоматизированных авиаметеорологических систем:
- система выпуска высокодетальных прогностических карт явлений погоды для нижнего воздушного пространства по России и ближнему зарубежью;
- система верификации прогнозов TAF (выпускаемых синоптиками официальных АМСГ РФ и ближнего зарубежья) и AUTOTAF (выпускаемых сайтом Метеоцентр.Азия) - выявление ошибок, онлайн-сопоставление с фактической погодой METAR, автоматическое внесение коррективов в прогнозы при резком отклонении фактической погоды от прогноза, подсчёт оправдываемости прогнозов по элементам и в целом;
- система обработки, анализа и отображения авиаметеорологической информации для применения провайдерами метеорологической информации.

Рекомендуем: Удобный поиск горящих туров в Швейцарию

Погода Облучье - сегодня

Время (UTC), дата Ветер
(°,м/с) 
Видим.   Явления Облачность Т
(°С)
Тd
(°С)
f(%) Тe
(°С)
Pmin
(гПа)
dP
(гПа)
Po
(мм)
O2
(г/м3)
Тmin Tmax R s Состояние
почвы
00 22.01.17 010 (С) 20000 м    ясно 
-32.8 -36.9 67 -37  1029.5  0.4  744  343  -34.4         
03 22.01.17 170 (Ю) 20000 м    ясно 
-23.3 -28.9 60 -24  1027.8  -0.3  743  329           
06 22.01.17 260 (З) 20000 м    1/0 верхняя 
[Ci fib]
-21.8 -27.9 58 -25  1026.4  -1.1  743  327           
09 22.01.17 060 (СВ) 20000 м    ясно 
-27.3 -30.9 71 -28  1028  0.8  743  335    -20.1       
12 22.01.17 020 (С) 20000 м    ясно 
-31.6 -35.1 71 -32  1028.9  0.2  743  341           
15 22.01.17 020 (С) 20000 м    ясно 
-32.3 -36.2 68 -33  1028.7  -0.2  743  342           
18 22.01.17 010 (С) 20000 м    ясно 
-31.2 -35.3 67 -32  1028.6  0.1  743  340           
21 22.01.17 010 (С) 20000 м    ясно 
-31.9 -36 67 -36  1028.2  -0.6  743  341  -32.6      24  равномерный
сухой снег
100% 
00 23.01.17 010 (С) 20000 м    ясно 
-31.2 -35.7 65 -35  1028.6  0.5  743  340           
03 23.01.17 тихо ()   20000 м    ясно 
-19.6 -27 52 -20  1026.5  -0.4  743  324           
06 23.01.17 260 (З) 20000 м    ясно 
-19.8 -27 53 -20  1026.3  -0.2  743  324           
09 23.01.17 320 (СЗ) 20000 м    ясно 
-23.5 -28.2 65 -28  1028  1.1  744  330    -18.8       
12 23.01.17 010 (С) 20000 м    ясно 
-29.3 -32.5 74 -30  1030  1.1  744  338           
15 23.01.17 030 (СВ) 20000 м    ясно 
-31.1 -34.7 71 -32  1030.3  744  340           
18 23.01.17 020 (С) 20000 м    ясно 
-31.7 -35.5 69 -33  1030.9  0.5  745  341           
21 23.01.17 340 (С) 20000 м    ясно 
-30.4 -34.2 69 -34  1030.1  -0.5  744  339  -32.1      24  равномерный
сухой снег
100% 
00 24.01.17 020 (С) 20000 м    ясно 
-30.3 -34.3 68 -31  1030.8  0.7  745  340           
03 24.01.17 360 (С) 20000 м    ясно 
-16.9 -24 54 -17  1027.9  -0.9  744  321           
06 24.01.17 320 (СЗ) 20000 м    ясно 
-14.7 -23.8 46 -17  1027  -0.5  744  318           
09 24.01.17 тихо ()   20000 м    ясно 
-22.1 -26.3 69 -22  1028.7  0.5  744  328    -14.1       
12 24.01.17 тихо ()   20000 м    ясно 
-26.6 -29.5 76 -27  1029.4  0.1  744  334           
15 24.01.17 010 (С) 20000 м    ясно 
-28.8 -32.2 72 -29  1030.3  0.5  745  337           
18 24.01.17 тихо ()   20000 м    ясно 
-29.4 -32.8 72 -29  1030.4  745  338           
21 24.01.17 010 (С) 20000 м    ясно 
-25.9 -29.4 72 -31  1029.4  -0.4  744  333  -30      24  равномерный
сухой снег
100% 
00 25.01.17 020 (С) 20000 м    ясно 
-26.1 -30 70 -29  1030.2  0.8  745  334           
Время (UTC), дата Ветер
(°,м/с) 
Видим.   Явления Облачность Т
(°С)
Тd
(°С)
f(%) Тe
(°С)
Pmin
(гПа)
dP
(гПа)
Po
(мм)
O2
(г/м3)
Тmin Tmax R s Состояние
почвы

Для получения пояснительной информации подведите курсор к названию столбца.

ПОГОДА Облучье - архив

Всё, что Вы хотите узнать о погоде Облучье - удобно и подробно!

Выберите нужную дату (начиная с 1 января 2015* года) и нажмите кнопку "Найти".
Будут отображены архивные сводки погоды по пункту Облучье, начиная с указанной даты.


Отображать данные в формате CSV (для использования в таблицах Excel)


Внимание! Наш архив погоды предназначен исключительно для личного некоммерческого использования в познавательных целях. Если Вам необходимы официальные справки о состоянии погоды (для производственных, юридических, коммерческих и т.п. целей), обращайтесь в органы Росгидромета.

*Примечание: данная дата относится к архиву по метеостанциям СССР (Россия, СНГ, Балтия).
Архив по метеостанциям Зарубежной Европы и Азии (кроме Китая) хранится 10 дней, по другим регионам земного шара (Китай, Африка, Америка, Австралия, Океания) - 1 день.

Облучье - район местоположения метеостанции


Название, широта, долгота, высота метеостанции:
Облучье 49°ш. 131.1°д. 257 м над ур. моря [Российская Федерация]

Дополнительная информация

В oтличие oт бoльшинства пoгoдных сайтoв мы публикуем пoдрoбную метеoинфoрмацию в детальнoм прoфессиoнальнoм фoрмате.

Характеристики температуры и влажнoсти вoздуха измеряются на высoте 2 м в тени вдали oт зданий и деревьев.
Скoрoсть ветра измеряется на высoте 10 м (на урoвне рoста челoвека скoрoсть ветра ниже в 1.5-2 раза). Если метеoстанция нахoдится в гoрoде или в лесу, тo скoрoсть ветра занижена на 2-4 м/с пo сравнению с oткрытым местoм. Скoрoсть ветра над акватoриями крупных рек и oзёр, а также на вершинах хoлмoв на 2-5 м/с выше, чем в oбычных услoвиях.
Атмoсфернoе давление в разных тoчках местнoсти мoжет значительнo oтличаться oт давления на метеoстанции, в зависимoсти oт услoвий рельефа (при пoдъёме на 10 м давление пoнижается примернo на 1 мм рт.ст.).